sat.trackr.live / text

‹ back to catalog

ONEWEB-0636

NORAD 56077 · 2023-043AH

PAYLOAD ACTIVE UNKNOWN

§ Identity

Operator
Country
UK
Launch date
2023-03-26
Launch site
SRILR
Launch vehicle
Mass (kg)
RCS (m²)

Purposes: comms

External: N2YO · Heavens-Above · Gunter

§ Orbital elements

Epoch: 2026-05-25T02:10:49.973088Z

Period
109.46 min
Inclination
87.8990°
Eccentricity
0.0002104
Mean motion
13.15547564 rev/d
Perigee alt
1,200.2 km
Apogee alt
1,203.4 km
Semi-major
7,579.9 km
B*
2.7366e-4
RAAN
263.8000°
Arg perigee
96.8159°
Mean anomaly
263.3211°
Rev number
15,337

§ Raw data

ONEWEB-06361 56077U 23043AH  26145.09085617  .00000116  00000+0  27366-3 0  99952 56077  87.8990 263.8000 0002104  96.8159 263.3211 13.15547564153370

JSON: /api/v1/satellites/56077 · /tle

For live sub-satellite position, see the globe view (requires WebGL).

§ Visibility from observer

Set your observer location to see the next 7 days of passes ≥ 10°. The values pass through the URL so the page stays shareable.

No JS? Fill the form by hand. The geolocation button needs JavaScript.